Wind From: 11-12-2017 12:03 Until: 12-12-2017 06:00 warning for: Wind Level: Orange info button

Power and phone distribution networks may be disrupted for relatively long periods., Roofs and chimneys can be damaged. , Tree branches may break. , Vehicles can be deported. , Traffic may be disrupted, particularly on secondary roads in forest areas. Limit your trips. , Limit your speed in highway driving, especially if you drive a vehicle or hitch sensitive to wind. , Do not go for walks in forests or along the coast., In town, be vigilant against possible falling objects., Do not work on roofs and do not touch any electrical line fallen on the ground., Store or secure sensitive objects to wind or likely to be damaged., Always install power generators outside buildings. 


Meteo18 Weather Cam more information Meteo18 Weather Cam


Thunder radar more information blitzortung!


Rain radar more information rain snow radar


Visit our other weather sites:

Template documentation
and downloads

And another site



Weather Underground History page Text

Daily Summary for August 25, 2017 Units:  English    Metric   Both
« Previous Day
Next Day »
Daily Weekly Monthly Yearly Custom
  High: Low: Average:
Temperature: 84.2 °F 62.8 °F 73 °F
Dew Point: 69.6 °F 60.1 °F 64.8 °F
Humidity: 93 % 58 % 77 %
Wind Speed: 12 mph 0 mph 2.5 mph
Wind Gust: 19 mph - -
Wind:- - SSW
Pressure: 30 in 30 in -
Precipitation: 0.05 in    
Historical Graphs
 
 
Tabular Data for August 25, 2017
Time Temperature Dew Point Pressure Wind Wind Speed Wind Gust Humidity Rainfall Rate (Hourly)
00:02 71.2 °F 63 °F 30 in NE 6 mph 10 mph 75 % 0 in
00:07 71.1 °F 62.8 °F 30 in NE 4 mph 9 mph 75 % 0 in
00:12 71.1 °F 63.1 °F 30 in NNE 6 mph 9 mph 76 % 0 in
00:17 70.9 °F 63 °F 30 in NNE 8 mph 9 mph 76 % 0 in
00:22 70.7 °F 62.8 °F 30 in NE 3 mph 9 mph 76 % 0 in
00:32 70.3 °F 62.4 °F 30 in NE 4 mph 9 mph 76 % 0 in
00:37 70.3 °F 62.8 °F 30 in NNE 5 mph 9 mph 77 % 0 in
00:42 70.3 °F 62.8 °F 30 in NE 5 mph 7 mph 77 % 0 in
00:47 70.3 °F 62.8 °F 30 in NE 5 mph 7 mph 77 % 0 in
00:52 70.2 °F 62.6 °F 30 in NE 4 mph 8 mph 77 % 0 in
00:57 70 °F 62.4 °F 30 in NE 5 mph 8 mph 77 % 0 in
01:02 69.8 °F 62.2 °F 30 in NE 1 mph 8 mph 77 % 0 in
01:07 69.6 °F 62.4 °F 30 in East 1 mph 6 mph 78 % 0 in
01:12 69.3 °F 62.1 °F 30 in NNW 1 mph 6 mph 78 % 0 in
01:22 69.1 °F 62.2 °F 30 in North 2 mph 4 mph 79 % 0 in
01:27 68.7 °F 61.9 °F 30 in Calm   4 mph 79 % 0 in
01:32 68.5 °F 62.1 °F 30 in North 3 mph 4 mph 80 % 0 in
01:37 68.4 °F 61.9 °F 30 in Calm   3 mph 80 % 0 in
01:42 68.2 °F 62.1 °F 30 in North 2 mph 3 mph 81 % 0 in
01:47 68.2 °F 62.1 °F 30 in North 1 mph 3 mph 81 % 0 in
01:52 68.2 °F 61.7 °F 30 in North 2 mph 3 mph 80 % 0 in
02:02 68.2 °F 61.7 °F 30 in Calm   5 mph 80 % 0 in
02:12 68 °F 61.9 °F 30 in NE 1 mph 5 mph 81 % 0 in
02:22 67.6 °F 61.5 °F 30 in NNE 1 mph 3 mph 81 % 0 in
02:27 67.5 °F 61.3 °F 30 in Calm   3 mph 81 % 0 in
02:32 67.3 °F 61.5 °F 30 in Calm   3 mph 82 % 0 in
02:37 67.3 °F 61.5 °F 30 in NNW 2 mph 2 mph 82 % 0 in
02:42 67.3 °F 61.5 °F 30 in NNE 2 mph 2 mph 82 % 0 in
02:47 67.3 °F 61.5 °F 30 in NNE 1 mph 3 mph 82 % 0 in
02:52 67.3 °F 61.5 °F 30 in North 1 mph 3 mph 82 % 0 in
02:57 67.1 °F 61.3 °F 30 in Calm   3 mph 82 % 0 in
03:02 66.9 °F 61.2 °F 30 in North 1 mph 3 mph 82 % 0 in
03:12 66.4 °F 61 °F 30 in Calm   2 mph 83 % 0 in
03:17 66.4 °F 61 °F 30 in Calm   2 mph 83 % 0 in
03:22 66.4 °F 61 °F 30 in NNE 1 mph 2 mph 83 % 0 in
03:27 66.2 °F 60.8 °F 30 in NNE 1 mph 2 mph 83 % 0 in
03:32 66 °F 61 °F 30 in Calm   2 mph 84 % 0 in
03:37 66.4 °F 61.3 °F 30 in NE 3 mph 3 mph 84 % 0 in
03:42 66.7 °F 61.3 °F 30 in NNE 1 mph 3 mph 83 % 0 in
03:52 66.4 °F 61 °F 30 in Calm   4 mph 83 % 0 in
03:57 66.4 °F 61 °F 30 in NE 2 mph 2 mph 83 % 0 in
04:02 66.2 °F 60.8 °F 30 in Calm   2 mph 83 % 0 in
04:12 66 °F 61 °F 30 in Calm   3 mph 84 % 0 in
04:17 66 °F 61 °F 30 in North 1 mph 1 mph 84 % 0 in
04:22 65.7 °F 60.6 °F 30 in North 1 mph 1 mph 84 % 0 in
04:27 65.7 °F 61 °F 30 in NNE 1 mph 1 mph 85 % 0 in
04:32 65.7 °F 61 °F 30 in Calm   1 mph 85 % 0 in
04:37 65.3 °F 60.6 °F 30 in North 1 mph 2 mph 85 % 0 in
04:42 65.1 °F 60.8 °F 30 in NW 1 mph 2 mph 86 % 0 in
04:47 65.1 °F 60.4 °F 30 in WNW 1 mph 2 mph 85 % 0 in
04:52 64.9 °F 61 °F 30 in NW 1 mph 2 mph 87 % 0 in
05:02 64.9 °F 61 °F 30 in NW 1 mph 2 mph 87 % 0 in
05:07 64.8 °F 60.8 °F 30 in WNW 1 mph 2 mph 87 % 0 in
05:12 64.9 °F 61 °F 30 in NNW 1 mph 2 mph 87 % 0 in
05:17 65.1 °F 61.2 °F 30 in Calm   2 mph 87 % 0 in
05:22 64.9 °F 60.6 °F 30 in Calm   2 mph 86 % 0 in
05:32 64.8 °F 60.8 °F 30 in Calm   2 mph 87 % 0 in
05:42 64.2 °F 60.3 °F 30 in Calm   1 mph 87 % 0 in
05:52 64.2 °F 60.6 °F 30 in Calm   1 mph 88 % 0 in
06:02 63.9 °F 60.3 °F 30 in Calm   1 mph 88 % 0 in
06:07 63.9 °F 60.6 °F 30 in Calm   2 mph 89 % 0 in
06:12 63.9 °F 60.6 °F 30 in Calm   2 mph 89 % 0 in
06:17 63.9 °F 60.6 °F 30 in Calm   1 mph 89 % 0 in
06:22 63.7 °F 60.6 °F 30 in Calm   1 mph 90 % 0 in
06:32 63.1 °F 60.1 °F 30 in Calm   2 mph 90 % 0 in
06:37 63.1 °F 60.4 °F 30 in Calm   2 mph 91 % 0 in
06:42 63 °F 60.3 °F 30 in Calm     91 % 0 in
06:52 63 °F 60.6 °F 30 in Calm   1 mph 92 % 0 in
06:57 62.8 °F 60.1 °F 30 in Calm   1 mph 91 % 0 in
07:02 62.8 °F 60.4 °F 30 in Calm     92 % 0 in
07:12 62.8 °F 60.1 °F 30 in Calm     91 % 0 in
07:17 62.8 °F 60.1 °F 30 in Calm   1 mph 91 % 0 in
07:22 62.8 °F 60.4 °F 30 in Calm   1 mph 92 % 0 in
07:32 63 °F 60.6 °F 30 in Calm   2 mph 92 % 0 in
07:42 63.9 °F 61.5 °F 30 in Calm     92 % 0 in
07:52 64.6 °F 61.3 °F 30 in Calm     89 % 0 in
08:02 64.9 °F 61.9 °F 30 in Calm     90 % 0 in
08:07 65.1 °F 61.9 °F 30 in Calm   1 mph 89 % 0 in
08:12 65.1 °F 61.9 °F 30 in Calm   1 mph 89 % 0 in
08:17 65.5 °F 62.2 °F 30 in Calm   1 mph 89 % 0 in
08:22 65.7 °F 62.2 °F 30 in Calm   1 mph 89 % 0 in
08:32 66 °F 62.6 °F 30 in Calm     89 % 0 in
08:37 66.4 °F 62.8 °F 30 in Calm     88 % 0 in
08:47 66.4 °F 62.8 °F 30 in Calm   1 mph 88 % 0 in
08:52 66.4 °F 63 °F 30 in SW 1 mph 1 mph 89 % 0 in
09:02 66.6 °F 63 °F 30 in SSE 1 mph 2 mph 88 % 0 in
09:07 66.7 °F 63.3 °F 30 in Calm   4 mph 89 % 0 in
09:12 66.6 °F 63.5 °F 30 in East 1 mph 4 mph 90 % 0 in
09:17 66.4 °F 63.3 °F 30 in Calm   3 mph 90 % 0.05 in
09:27 66.4 °F 63.7 °F 30 in Calm   2 mph 91 % 0.05 in
09:32 66.4 °F 64 °F 30 in Calm   2 mph 92 % 0.05 in
09:37 66.2 °F 63.9 °F 30 in West 1 mph 2 mph 92 % 0.05 in
09:47 66.4 °F 64.2 °F 30 in Calm   2 mph 93 % 0.05 in
09:52 66.6 °F 64.4 °F 30 in ENE 1 mph 2 mph 93 % 0.05 in
10:02 66.7 °F 64.4 °F 30 in Calm   1 mph 92 % 0.05 in
10:12 68 °F 65.7 °F 30 in Calm   2 mph 92 % 0.05 in
10:17 69.1 °F 66.9 °F 30 in Calm   1 mph 93 % 0 in
10:22 69.6 °F 66.6 °F 30 in Calm   1 mph 90 % 0 in
10:32 69.6 °F 66.2 °F 30 in SW 2 mph 2 mph 89 % 0 in
10:42 69.6 °F 66.6 °F 30 in SSW 1 mph 4 mph 90 % 0 in
10:52 71.1 °F 67.6 °F 30 in SSW 2 mph 4 mph 89 % 0 in
10:57 71.8 °F 67.3 °F 30 in SSE 4 mph 4 mph 86 % 0 in
11:02 72.3 °F 67.6 °F 30 in SSW 4 mph 4 mph 85 % 0 in
11:12 73.8 °F 68.4 °F 30 in SSW 1 mph 6 mph 83 % 0 in
11:17 74.7 °F 69.1 °F 30 in Calm   6 mph 83 % 0 in
11:22 75.4 °F 68.4 °F 30 in Calm   6 mph 79 % 0 in
11:32 77 °F 68.5 °F 30 in SW 6 mph 6 mph 75 % 0 in
11:42 77.5 °F 67.5 °F 30 in WSW 6 mph 7 mph 71 % 0 in
11:52 77.7 °F 67.6 °F 30 in WSW 6 mph 10 mph 71 % 0 in
12:02 78.3 °F 67.6 °F 30 in WNW 3 mph 12 mph 70 % 0 in
12:07 78.3 °F 67.6 °F 30 in WSW 6 mph 10 mph 70 % 0 in
12:12 78.4 °F 68.2 °F 30 in WSW 3 mph 10 mph 71 % 0 in
12:17 78.8 °F 67.8 °F 30 in SW 6 mph 11 mph 69 % 0 in
12:22 78.4 °F 68.2 °F 30 in SW 7 mph 11 mph 71 % 0 in
12:27 78.8 °F 67.8 °F 30 in West 5 mph 11 mph 69 % 0 in
12:32 79.3 °F 68.7 °F 30 in SW 11 mph 11 mph 70 % 0 in
12:37 79.7 °F 69.1 °F 30 in NW 5 mph 11 mph 70 % 0 in
12:47 79.5 °F 68.9 °F 30 in SW 4 mph 11 mph 70 % 0 in
12:52 79.9 °F 68.7 °F 30 in WSW 4 mph 11 mph 69 % 0 in
12:57 80.1 °F 69.4 °F 30 in West 3 mph 11 mph 70 % 0 in
13:02 80.1 °F 68.2 °F 30 in SW 4 mph 11 mph 67 % 0 in
13:12 80.4 °F 68.9 °F 30 in West 7 mph 11 mph 68 % 0 in
13:17 80.4 °F 68.5 °F 30 in South 12 mph 15 mph 67 % 0 in
13:22 80.8 °F 68.7 °F 30 in West 2 mph 15 mph 67 % 0 in
13:32 81.1 °F 68.7 °F 30 in West 6 mph 14 mph 66 % 0 in
13:42 80.8 °F 68.4 °F 30 in West 7 mph 11 mph 66 % 0 in
13:52 82 °F 69.1 °F 30 in West 5 mph 12 mph 65 % 0 in
14:02 82.6 °F 69.6 °F 30 in SSW 10 mph 13 mph 65 % 0 in
14:07 82.9 °F 69.4 °F 30 in WSW 9 mph 12 mph 64 % 0 in
14:12 82.8 °F 68.9 °F 30 in West 9 mph 12 mph 63 % 0 in
14:17 82.6 °F 69.1 °F 30 in West 4 mph 14 mph 64 % 0 in
14:22 82.9 °F 68.2 °F 30 in West 4 mph 14 mph 61 % 0 in
14:32 82.8 °F 68.4 °F 30 in SSW 3 mph 14 mph 62 % 0 in
14:37 83.5 °F 68.5 °F 30 in WSW 8 mph 12 mph 61 % 0 in
14:42 83.5 °F 68.2 °F 30 in SW 7 mph 12 mph 60 % 0 in
14:52 82.8 °F 68 °F 30 in WSW 6 mph 12 mph 61 % 0 in
15:02 83.1 °F 68.7 °F 30 in WNW 9 mph 12 mph 62 % 0 in
15:07 83.1 °F 67.3 °F 30 in SW 6 mph 12 mph 59 % 0 in
15:12 82.9 °F 67.6 °F 30 in WSW 3 mph 12 mph 60 % 0 in
15:17 83.5 °F 68.5 °F 30 in WSW 8 mph 12 mph 61 % 0 in
15:32 83.5 °F 67.6 °F 30 in West 6 mph 12 mph 59 % 0 in
15:42 84 °F 67.6 °F 30 in WNW 6 mph 11 mph 58 % 0 in
15:47 83.8 °F 68 °F 30 in WSW 8 mph 12 mph 59 % 0 in
15:52 83.8 °F 68 °F 30 in SW 5 mph 12 mph 59 % 0 in
16:02 84.2 °F 67.8 °F 30 in WSW 5 mph 13 mph 58 % 0 in
16:12 83.3 °F 67.5 °F 30 in West 2 mph 14 mph 59 % 0 in
16:17 83.7 °F 67.8 °F 30 in WNW 4 mph 11 mph 59 % 0 in
16:22 84 °F 67.6 °F 30 in SW 5 mph 11 mph 58 % 0 in
16:32 83.5 °F 68.2 °F 30 in WSW 7 mph 12 mph 60 % 0 in
16:42 83.1 °F 67.8 °F 30 in WSW 8 mph 12 mph 60 % 0 in
16:52 83.8 °F 68 °F 30 in West 9 mph 13 mph 59 % 0 in
17:02 83.7 °F 67.8 °F 30 in WSW 9 mph 19 mph 59 % 0 in
17:07 83.5 °F 68.2 °F 30 in WSW 11 mph 15 mph 60 % 0 in
17:12 82.9 °F 67.1 °F 30 in WSW 10 mph 15 mph 59 % 0 in
17:17 82.9 °F 67.1 °F 30 in WSW 6 mph 14 mph 59 % 0 in
17:22 83.1 °F 67.3 °F 30 in WSW 6 mph 14 mph 59 % 0 in
17:27 83.5 °F 67.6 °F 30 in WSW 6 mph 12 mph 59 % 0 in
17:32 83.3 °F 66.9 °F 30 in West 7 mph 12 mph 58 % 0 in
17:37 82.9 °F 66.6 °F 30 in SW 5 mph 14 mph 58 % 0 in
17:42 82.6 °F 66.7 °F 30 in WSW 8 mph 14 mph 59 % 0 in
17:52 82 °F 66.7 °F 30 in WSW 7 mph 14 mph 60 % 0 in
17:57 82 °F 67.3 °F 30 in West 4 mph 9 mph 61 % 0 in
18:02 81.9 °F 67.6 °F 30 in SW 3 mph 9 mph 62 % 0 in
18:12 81.5 °F 67.3 °F 30 in WSW 6 mph 13 mph 62 % 0 in
18:17 81.3 °F 67.5 °F 30 in West 6 mph 13 mph 63 % 0 in
18:22 81.5 °F 67.6 °F 30 in SW 6 mph 11 mph 63 % 0 in
18:32 81.7 °F 67.8 °F 30 in West 7 mph 11 mph 63 % 0 in
18:37 82 °F 67.6 °F 30 in SW 6 mph 11 mph 62 % 0 in
18:42 81.9 °F 68 °F 30 in WSW 4 mph 11 mph 63 % 0 in
18:47 81.5 °F 67.6 °F 30 in WSW 5 mph 11 mph 63 % 0 in
18:57 81.1 °F 67.3 °F 30 in West 3 mph 12 mph 63 % 0 in
19:02 81.1 °F 67.3 °F 30 in WSW 6 mph 12 mph 63 % 0 in
19:12 81 °F 67.6 °F 30 in SSW 2 mph 12 mph 64 % 0 in
19:17 80.8 °F 67.5 °F 30 in SW 5 mph 10 mph 64 % 0 in
19:22 80.6 °F 67.8 °F 30 in SW 3 mph 10 mph 65 % 0 in
19:32 80.6 °F 67.8 °F 30 in SW 2 mph 9 mph 65 % 0 in
19:37 80.4 °F 67.6 °F 30 in SSW 3 mph 9 mph 65 % 0 in
19:42 80.4 °F 67.6 °F 30 in WSW 3 mph 9 mph 65 % 0 in
19:52 80.2 °F 67.5 °F 30 in WSW 1 mph 7 mph 65 % 0 in
19:57 80.2 °F 67.5 °F 30 in WSW 1 mph 5 mph 65 % 0 in
20:02 80.1 °F 67.6 °F 30 in WSW 2 mph 5 mph 66 % 0 in
20:12 79.3 °F 67.5 °F 30 in Calm   4 mph 67 % 0 in
20:17 79.2 °F 67.6 °F 30 in Calm   2 mph 68 % 0 in
20:22 79 °F 67.5 °F 30 in Calm   2 mph 68 % 0 in
20:32 78.3 °F 67.6 °F 30 in Calm   1 mph 70 % 0 in
20:37 77.9 °F 67.3 °F 30 in Calm   1 mph 70 % 0 in
20:42 77.4 °F 67.3 °F 30 in Calm   1 mph 71 % 0 in
20:47 77 °F 67.3 °F 30 in Calm     72 % 0 in
20:52 76.5 °F 67.1 °F 30 in Calm     73 % 0 in
20:57 75.9 °F 67.1 °F 30 in Calm     74 % 0 in
21:02 75.6 °F 67.1 °F 30 in Calm     75 % 0 in
21:12 74.7 °F 66.9 °F 30 in Calm     77 % 0 in
21:17 74.5 °F 67.1 °F 30 in Calm     78 % 0 in
21:22 74.1 °F 66.7 °F 30 in Calm     78 % 0 in
21:32 73.9 °F 66.6 °F 30 in Calm     78 % 0 in
21:42 73.6 °F 66.4 °F 30 in Calm     78 % 0 in
21:52 73 °F 65.8 °F 30 in Calm     78 % 0 in
21:57 72.7 °F 66.2 °F 30 in Calm     80 % 0 in
22:02 72.3 °F 65.8 °F 30 in Calm     80 % 0 in
22:12 71.4 °F 65.7 °F 30 in Calm     82 % 0 in
22:17 71.1 °F 65.7 °F 30 in Calm     83 % 0 in
22:22 70.9 °F 65.5 °F 30 in Calm     83 % 0 in
22:27 70.9 °F 65.8 °F 30 in Calm     84 % 0 in
22:32 70.5 °F 65.1 °F 30 in Calm     83 % 0 in
22:42 71.1 °F 65.3 °F 30 in Calm     82 % 0 in
22:52 70.5 °F 65.1 °F 30 in Calm     83 % 0 in
22:57 70.2 °F 65.1 °F 30 in Calm     84 % 0 in
23:07 70.3 °F 64.9 °F 30 in Calm     83 % 0 in
23:12 70.2 °F 64.8 °F 30 in Calm     83 % 0 in
23:17 70 °F 64.9 °F 30 in Calm     84 % 0 in
23:22 69.4 °F 64.4 °F 30 in Calm     84 % 0 in
23:27 69.1 °F 64.4 °F 30 in Calm     85 % 0 in
23:32 68.7 °F 64.4 °F 30 in Calm     86 % 0 in
23:37 68.7 °F 64.8 °F 30 in Calm     87 % 0 in
23:42 68.5 °F 64.6 °F 30 in Calm     87 % 0 in
23:52 68.2 °F 64.2 °F 30 in Calm     87 % 0 in
Meteo18
Compliments of Weather Underground - 4 mb

Script developed by  Jim McMurry - jmcmurry@mwt.net Adapted for the template by  Wim van der Kuil - Leuven-Template.eu

You find our weather info also at:

European Weather Network

Weather Underground

Equipment we use:

Weather-station
Davis Vue

Weather-program
Meteohub

Weather-server
Raspberry PI 2 B+

Provider
1 and 1

Davis Vue

Meteohub

Raspberry PI 2 B+

1 and 1